Location: Bremen
(53.0793°N, 8.8017°E)
Time: 11:33:32
(UTC+02:00)

Transit 2A Rocket - Pass Details

Date: 20 June 2024
Orbit: 582 x 910 km, 66.7° (Epoch: 19 July)

Event Time Altitude Azimuth Distance (km) Brightness Sun altitude
Rises 01:18:14 0° 273° (W) 3,253 8.3 -13.5°
Reaches altitude 10° 01:20:59 10° 286° (WNW) 2,384 7.8 -13.5°
Maximum altitude 01:25:32 26° 342° (NNW) 1,629 7.6 -13.5°
Drops below altitude 10° 01:30:23 10° 37° (NE) 2,543 8.5 -13.5°
Sets 01:33:25 0° 50° (NE) 3,517 9.1 -13.5°
